This is the latest recevied weather packets stored in our database for station/object N8BAP. If no packets are shown the sender has not sent any weather packets the latest 10 day(s).
| Time | Temp. | Humidity | Pressure | Rain* | Wind** | Luminosity | Snow |
|---|---|---|---|---|---|---|---|
| 1777744844 | 10.56° C | 46% | 1022.3 hPa | 0 mm | - | 809 W/m² | - |
| 1777744538 | 11.11° C | 45% | 1022.4 hPa | 0 mm | - | 656 W/m² | - |
| 1777744234 | 11.11° C | 52% | 1022.5 hPa | 0 mm | - | 307 W/m² | - |
| 1777743932 | 11.11° C | 47% | 1022.2 hPa | 0 mm | - | 583 W/m² | - |
| 1777743627 | 10.56° C | 49% | 1022.4 hPa | 0 mm | - | 775 W/m² | - |
| 1777743324 | 10.56° C | 46% | 1022.4 hPa | 0 mm | - | 861 W/m² | - |
| 1777743018 | 10° C | 50% | 1022.3 hPa | 0 mm | - | 823 W/m² | - |
| 1777742714 | 10.56° C | 45% | 1022.4 hPa | 0 mm | - | 295 W/m² | - |
| 1777742410 | 10.56° C | 52% | 1022.5 hPa | 0 mm | - | 823 W/m² | - |
| 1777742106 | 10° C | 54% | 1022.5 hPa | 0 mm | - | 276 W/m² | - |
| 1777741804 | 10° C | 52% | 1022.5 hPa | 0 mm | - | 247 W/m² | - |
| 1777741500 | 9.44° C | 47% | 1022.5 hPa | 0 mm | - | 531 W/m² | - |
| 1777741196 | 10.56° C | 50% | 1022.4 hPa | 0 mm | - | 216 W/m² | - |
| 1777740894 | 10° C | 50% | 1022.4 hPa | 0 mm | - | 750 W/m² | - |
| 1777740590 | 10° C | 46% | 1022.6 hPa | 0 mm | - | 736 W/m² | - |
| 1777740286 | 9.44° C | 50% | 1022.6 hPa | 0 mm | - | 749 W/m² | - |
| 1777739984 | 10° C | 51% | 1022.7 hPa | 0 mm | - | 172 W/m² | - |
| 1777739679 | 10° C | 53% | 1023 hPa | 0 mm | - | 242 W/m² | - |
| 1777739377 | 10° C | 51% | 1022.6 hPa | 0 mm | - | 678 W/m² | - |
| 1777739073 | 10° C | 53% | 1022.9 hPa | 0 mm | - | 541 W/m² | - |
| 1777738770 | 10° C | 52% | 1022.6 hPa | 0 mm | - | 642 W/m² | - |
| 1777738466 | 9.44° C | 51% | 1023 hPa | 0 mm | - | 693 W/m² | - |
| 1777738165 | 10° C | 49% | 1022.9 hPa | 0 mm | - | 679 W/m² | - |
| 1777737862 | 10° C | 58% | 1023 hPa | 0 mm | - | 654 W/m² | - |
| 1777737561 | 9.44° C | 51% | 1022.9 hPa | 0 mm | - | 718 W/m² | - |
* Rain latest hour (hover to see other rain measurements)
** Current wind speed in m/s (hover to see current wind gust speed)